When you browse on this site, cookies collect data to enhance your experience and personalize the content and advertising you see.
Visit our Privacy Policy to learn more. By continuing to use the site, you agree to this use of cookies and data.
  • In United Kingdom
  • List of Countries
  • For 7 days
  • Water Temperature
  • Satellite Maps
  • Weather Map
  • Weather Widgets
  • user-avatar
    Login

    Hourly Weather Naftalan

    Today, 22 April, Monday

    Time Temperature Precipitation Wind Pressure Humidity
    00:00 +8°C° 0 mm 2 mps 769 mmHg 81%
    01:00 +8°C° 0 mm 3 mps 768 mmHg 80%
    02:00 +7°C° 0 mm 4 mps 768 mmHg 79%
    03:00 +7°C° 0 mm 5 mps 768 mmHg 78%
    04:00 +7°C° 0 mm 5 mps 768 mmHg 78%
    05:00 +7°C° 0 mm 6 mps 768 mmHg 78%
    06:00 +7°C° 0 mm 6 mps 767 mmHg 78%
    07:00 +8°C° 0.1 mm 6 mps 767 mmHg 77%
    08:00 +8°C° 0.1 mm 6 mps 767 mmHg 75%
    09:00 +8°C° 0.1 mm 6 mps 767 mmHg 74%
    10:00 +9°C° 0.1 mm 6 mps 767 mmHg 71%
    11:00 +10°C° 0.1 mm 6 mps 766 mmHg 68%
    12:00 +10°C° 0.1 mm 7 mps 766 mmHg 65%
    13:00 +10°C° 0.2 mm 7 mps 766 mmHg 67%
    14:00 +10°C° 0.2 mm 7 mps 766 mmHg 70%
    15:00 +9°C° 0.2 mm 7 mps 766 mmHg 72%
    16:00 +9°C° 1 mm 7 mps 767 mmHg 73%
    17:00 +8°C° 1 mm 7 mps 767 mmHg 75%
    18:00 +8°C° 1 mm 7 mps 767 mmHg 76%
    19:00 +7°C° 1.3 mm 6 mps 768 mmHg 76%
    20:00 +7°C° 1.3 mm 6 mps 768 mmHg 77%
    21:00 +7°C° 1.3 mm 5 mps 768 mmHg 77%
    22:00 +7°C° 0.7 mm 5 mps 768 mmHg 78%
    23:00 +6°C° 0.7 mm 5 mps 768 mmHg 78%

    Tomorrow, 23 April, Tuesday

    Time Temperature Precipitation Wind Pressure Humidity
    00:00 +6°C° 0.7 mm 4 mps 769 mmHg 79%
    01:00 +6°C° 0.8 mm 4 mps 769 mmHg 80%
    02:00 +6°C° 0.8 mm 4 mps 769 mmHg 81%
    03:00 +5°C° 0.8 mm 4 mps 769 mmHg 82%
    04:00 +5°C° 0.6 mm 5 mps 769 mmHg 84%
    05:00 +5°C° 0.6 mm 5 mps 770 mmHg 85%
    06:00 +5°C° 0.6 mm 5 mps 770 mmHg 86%
    07:00 +6°C° 0.4 mm 5 mps 771 mmHg 84%
    08:00 +7°C° 0.4 mm 5 mps 771 mmHg 82%
    09:00 +7°C° 0.4 mm 5 mps 772 mmHg 80%
    10:00 +10°C° 0.1 mm 4 mps 772 mmHg 73%
    11:00 +11°C° 0.1 mm 4 mps 772 mmHg 66%
    12:00 +12°C° 0.1 mm 4 mps 772 mmHg 60%
    13:00 +13°C° 0 mm 3 mps 772 mmHg 56%
    14:00 +15°C° 0 mm 2 mps 772 mmHg 53%
    15:00 +15°C° 0 mm 1 mps 772 mmHg 49%
    16:00 +15°C° 0 mm 1 mps 772 mmHg 52%
    17:00 +14°C° 0 mm 2 mps 773 mmHg 55%
    18:00 +13°C° 0 mm 2 mps 773 mmHg 58%
    19:00 +12°C° 0 mm 2 mps 773 mmHg 62%
    20:00 +11°C° 0 mm 1 mps 773 mmHg 65%
    21:00 +10°C° 0 mm 1 mps 774 mmHg 69%
    22:00 +10°C° 0 mm 1 mps 774 mmHg 70%
    23:00 +10°C° 0 mm 1 mps 774 mmHg 70%

    Day after tomorrow, 24 April, Wednesday

    Time Temperature Precipitation Wind Pressure Humidity
    00:00 +8°C° 0 mm 0 mps 774 mmHg 70%
    01:00 +9°C° 0 mm 1 mps 774 mmHg 70%
    02:00 +9°C° 0 mm 1 mps 774 mmHg 69%
    03:00 +9°C° 0 mm 1 mps 774 mmHg 68%
    04:00 +10°C° 0 mm 1 mps 774 mmHg 68%
    05:00 +10°C° 0 mm 1 mps 774 mmHg 67%
    06:00 +11°C° 0 mm 1 mps 774 mmHg 67%
    07:00 +12°C° 0 mm 1 mps 774 mmHg 61%
    08:00 +13°C° 0 mm 2 mps 775 mmHg 54%
    09:00 +15°C° 0 mm 2 mps 775 mmHg 48%
    10:00 +14°C° 0 mm 3 mps 774 mmHg 45%
    11:00 +16°C° 0 mm 3 mps 774 mmHg 42%
    12:00 +17°C° 0 mm 4 mps 774 mmHg 39%
    13:00 +16°C° 0 mm 5 mps 773 mmHg 41%
    14:00 +16°C° 0 mm 5 mps 773 mmHg 42%
    15:00 +16°C° 0 mm 6 mps 772 mmHg 43%
    16:00 +15°C° 0 mm 6 mps 772 mmHg 47%
    17:00 +14°C° 0 mm 6 mps 772 mmHg 51%
    18:00 +13°C° 0 mm 6 mps 772 mmHg 55%
    19:00 +11°C° 0 mm 6 mps 772 mmHg 58%
    20:00 +11°C° 0 mm 6 mps 773 mmHg 61%
    21:00 +11°C° 0 mm 6 mps 773 mmHg 64%
    22:00 +10°C° 0 mm 6 mps 773 mmHg 66%
    23:00 +10°C° 0 mm 5 mps 773 mmHg 68%

    25 April, Thursday

    Time Temperature Precipitation Wind Pressure Humidity
    00:00 +10°C° 0 mm 5 mps 772 mmHg 70%
    01:00 +10°C° 0 mm 5 mps 772 mmHg 71%
    02:00 +11°C° 0 mm 4 mps 772 mmHg 72%
    03:00 +11°C° 0 mm 4 mps 772 mmHg 72%
    04:00 +11°C° 0 mm 4 mps 772 mmHg 72%
    05:00 +11°C° 0 mm 3 mps 773 mmHg 71%
    06:00 +11°C° 0 mm 3 mps 773 mmHg 71%
    07:00 +13°C° 0 mm 3 mps 773 mmHg 64%
    08:00 +15°C° 0 mm 2 mps 773 mmHg 56%
    09:00 +16°C° 0 mm 2 mps 773 mmHg 49%
    10:00 +17°C° 0 mm 2 mps 773 mmHg 47%
    11:00 +18°C° 0 mm 3 mps 773 mmHg 45%
    12:00 +19°C° 0 mm 3 mps 773 mmHg 43%
    13:00 +19°C° 0 mm 4 mps 773 mmHg 44%
    14:00 +19°C° 0 mm 5 mps 772 mmHg 44%
    15:00 +17°C° 0 mm 6 mps 772 mmHg 45%
    16:00 +16°C° 0 mm 5 mps 772 mmHg 48%
    17:00 +15°C° 0 mm 5 mps 772 mmHg 52%
    18:00 +14°C° 0 mm 5 mps 772 mmHg 55%
    19:00 +13°C° 0 mm 5 mps 773 mmHg 58%
    20:00 +13°C° 0 mm 5 mps 773 mmHg 61%
    21:00 +12°C° 0 mm 5 mps 774 mmHg 64%
    22:00 +12°C° 0 mm 5 mps 773 mmHg 67%
    23:00 +11°C° 0 mm 4 mps 773 mmHg 70%

    26 April, Friday

    Time Temperature Precipitation Wind Pressure Humidity
    00:00 +11°C° 0 mm 4 mps 773 mmHg 72%
    01:00 +11°C° 0 mm 3 mps 773 mmHg 72%
    02:00 +11°C° 0 mm 3 mps 773 mmHg 73%
    03:00 +10°C° 0 mm 3 mps 772 mmHg 73%
    04:00 +12°C° 0 mm 2 mps 773 mmHg 71%
    05:00 +12°C° 0 mm 2 mps 773 mmHg 69%
    06:00 +12°C° 0 mm 1 mps 773 mmHg 67%
    07:00 +14°C° 0 mm 1 mps 773 mmHg 60%
    08:00 +15°C° 0 mm 1 mps 773 mmHg 53%
    09:00 +18°C° 0 mm 1 mps 773 mmHg 46%
    10:00 +18°C° 0 mm 2 mps 773 mmHg 43%
    11:00 +18°C° 0 mm 3 mps 772 mmHg 40%
    12:00 +19°C° 0 mm 4 mps 772 mmHg 38%
    13:00 +19°C° 0 mm 5 mps 772 mmHg 38%
    14:00 +19°C° 0 mm 5 mps 772 mmHg 39%
    15:00 +17°C° 0 mm 6 mps 771 mmHg 39%
    16:00 +16°C° 0 mm 6 mps 771 mmHg 44%
    17:00 +15°C° 0 mm 6 mps 771 mmHg 49%
    18:00 +14°C° 0 mm 6 mps 771 mmHg 54%
    19:00 +14°C° 0 mm 6 mps 772 mmHg 58%
    20:00 +13°C° 0 mm 6 mps 772 mmHg 62%
    21:00 +13°C° 0 mm 5 mps 772 mmHg 65%
    22:00 +12°C° 0 mm 5 mps 772 mmHg 68%
    23:00 +12°C° 0 mm 5 mps 772 mmHg 71%

    27 April, Saturday

    Time Temperature Precipitation Wind Pressure Humidity
    00:00 +12°C° 0 mm 5 mps 772 mmHg 74%
    01:00 +12°C° 0 mm 4 mps 771 mmHg 75%
    02:00 +12°C° 0 mm 4 mps 771 mmHg 77%
    03:00 +11°C° 0 mm 4 mps 771 mmHg 78%
    04:00 +12°C° 0 mm 4 mps 771 mmHg 77%
    05:00 +12°C° 0 mm 4 mps 771 mmHg 77%
    06:00 +12°C° 0 mm 4 mps 771 mmHg 76%
    07:00 +14°C° 0 mm 4 mps 771 mmHg 68%
    08:00 +15°C° 0 mm 5 mps 771 mmHg 61%
    09:00 +16°C° 0 mm 5 mps 771 mmHg 53%
    10:00 +17°C° 0 mm 6 mps 771 mmHg 51%
    11:00 +17°C° 0 mm 6 mps 771 mmHg 50%
    12:00 +19°C° 0 mm 6 mps 770 mmHg 49%
    13:00 +17°C° 0 mm 6 mps 770 mmHg 50%
    14:00 +17°C° 0 mm 6 mps 769 mmHg 51%
    15:00 +17°C° 0 mm 6 mps 769 mmHg 53%
    16:00 +16°C° 0 mm 6 mps 769 mmHg 57%
    17:00 +15°C° 0 mm 6 mps 769 mmHg 62%
    18:00 +14°C° 0 mm 6 mps 769 mmHg 66%
    19:00 +14°C° 0 mm 6 mps 769 mmHg 69%
    20:00 +13°C° 0 mm 6 mps 769 mmHg 72%
    21:00 +13°C° 0 mm 5 mps 769 mmHg 75%
    22:00 +13°C° 0 mm 5 mps 769 mmHg 77%
    23:00 +12°C° 0 mm 5 mps 769 mmHg 79%
    Show more